Aérodrome :
LOGIN :

S'inscrire | Disclaimer

   EN    FR    IT 

 










Légende :    VFR   VFR Marginal   IFR   IFR Intensif   IFR Très Intensif
Visi : 
Plafond : 
>= 8 km
>= 3000ft
5 à 8 km
1000 à 3000 ft
1500m à 5 km
500 à 1000 ft
800 à 1500m
200 à 500 ft
< 800m
< 200 ft
Symboles :   Orages  Brouillard  Fortes neiges  Fortes précipitations  Vent > 20 kt
SIGMETs :   Divers  Orages  Givrage  Turbulence  Onde Orograph.  Cendres Volcan.







- Altitude de l'aérodrome : 38 ft
- Code IATA : BOH
- Voir les cartes d'approche


EGHH - Bournemouth

DERNIER METAR :
  • 162220Z 30007KT CAVOK 03/02 Q1023

METARs EXPIRÉS :
  • 162150Z 31008KT CAVOK 03/02 Q1023
  • 162120Z 30007KT 270V350 CAVOK 04/03 Q1023
  • 162050Z 30007KT 270V330 CAVOK 04/03 Q1023
  • 162020Z 29007KT CAVOK 02/02 Q1022
  • 161950Z 29005KT CAVOK 02/01 Q1022

TAF TAF EGHH
Valide du 16 à 21h jusqu'au 17 à 06h UTC


162002Z 1621/1706 30004KT 9999 FEW035
BECMG 1700/1703 3000 BR
PROB30 1702/1706 0300 FG FZFG VV///
ATIS : +44 1202 364 151
Météo : +44 1202 364 158 (TAF)
Pas de NOTAMs connus pour ce terrain.



MET'MAP, la Météo Aéronautique d'un coup d'oeil ! - Copyright ORBIFLY Décembre 2007 - Disclaimer

ORBIFLY MET'MAP TEAM :

Programmation & Développement : Alexandra Zaïnal
Conception & Développement : Baudouin d'Aumeries
Co-Programmation & Développement : Marc-Olivier Méhu
Soutien technique & logistique : Manuel Goepfert

Contact : metmap@orbifly.com




SOURCES & CREDITS :

   NOAA